This demonstration page uses our WeatherBlox Daily Observations layout. Learn more.

Left ArrowRight Arrow

Hourly Observations for August 31, 2020

Temp ( °F °C ) Dew Point ( °F °C ) Humidity (%) Winds ( mph kmh ) Pressure ( in mb ) Visibility ( mi km ) Precip ( " mm )
12:15 am 00:15 Clear 69 20.8 66 18.7 88 88 SSE 7 11 29.59 1002 10 16 N/A
12:35 am 00:35 Partly Cloudy 69 20.8 66 18.7 88 88 NNW 9 15 29.61 1003 10 16 N/A
12:55 am 00:55 Partly Cloudy with Nearby Thunderstorms 72 22.3 66 19.1 82 82 NW 9 15 29.64 1004 10 16 N/A
1:15 am 01:15 undefined 72 22.1 66 19.1 83 83 N N/A 29.65 1004 10 16 N/A
1:35 am 01:35 undefined 72 22 67 19.2 84 84 NNW 9 15 29.65 1004 10 16 N/A
1:55 am 01:55 Cloudy 68 20.2 57 13.9 67 67 N 20 31 29.69 1005 10 16 N/A
2:15 am 02:15 Cloudy 67 19.6 56 13.6 68 68 N 15 24 29.71 1006 10 16 N/A
2:35 am 02:35 Cloudy 67 19.2 55 12.5 65 65 N 20 31 29.72 1007 10 16 N/A
2:55 am 02:55 Cloudy 66 18.7 54 12.1 66 66 N 21 33 29.75 1007 10 16 N/A
3:15 am 03:15 Cloudy 65 18.5 51 10.3 59 59 N 23 37 29.77 1008 10 16 N/A
3:35 am 03:35 Cloudy 64 18 51 10.3 61 61 N 15 24 29.77 1008 10 16 N/A
3:55 am 03:55 Cloudy 64 17.7 47 8.2 54 54 NNE 25 41 29.79 1009 10 16 N/A
4:15 am 04:15 Cloudy 64 17.5 45 7 50 50 N 24 39 29.81 1009 10 16 N/A
4:35 am 04:35 Cloudy 63 17 43 6.1 49 49 N 22 35 29.83 1010 10 16 N/A
4:55 am 04:55 Cloudy 62 16.6 41 5.1 47 47 N 18 30 29.84 1010 10 16 N/A
5:15 am 05:15 Cloudy 61 16.2 42 5.4 49 49 N 13 20 29.84 1010 10 16 N/A
5:35 am 05:35 Mostly Cloudy 60 15.6 42 5.8 52 52 N 14 22 29.85 1011 10 16 N/A
5:55 am 05:55 Partly Cloudy 60 15.4 43 6.2 54 54 NNE 12 19 29.86 1011 10 16 N/A
6:15 am 06:15 Partly Cloudy 59 15.1 43 6.1 55 55 NNE 12 19 29.86 1011 10 16 N/A
6:35 am 06:35 Partly Cloudy 58 14.2 44 6.5 60 60 NNE 7 11 29.88 1012 10 16 N/A
6:55 am 06:55 Mostly Cloudy 57 13.9 45 7 63 63 N 8 13 29.88 1012 10 16 N/A
7:15 am 07:15 Mostly Cloudy 56 13.4 45 7 65 65 N 6 9 29.90 1013 10 16 N/A
7:35 am 07:35 Partly Cloudy 56 13.2 45 7.2 67 67 N 7 11 29.90 1013 10 16 N/A
7:55 am 07:55 Sunny 56 13.5 45 7.3 66 66 N 7 11 29.91 1013 10 16 N/A
8:15 am 08:15 Sunny 57 14 45 7.2 64 64 N 8 13 29.91 1013 10 16 N/A
8:35 am 08:35 Sunny 58 14.5 46 7.5 63 63 N 9 15 29.90 1013 10 16 N/A
8:55 am 08:55 Sunny 58 14.2 46 7.5 64 64 N 9 15 29.91 1013 10 16 N/A
9:15 am 09:15 Sunny 59 15 46 7.5 61 61 N 9 15 29.90 1013 10 16 N/A
9:35 am 09:35 Sunny 59 15.2 45 7.3 59 59 N 10 17 29.91 1013 10 16 N/A
9:55 am 09:55 Sunny 61 16 45 7.3 57 57 N 13 20 29.90 1013 10 16 N/A
10:15 am 10:15 Sunny 61 16.3 44 6.9 54 54 N 10 17 29.91 1013 10 16 N/A
10:35 am 10:35 Sunny 63 17 44 6.9 52 52 NNE 13 20 29.90 1013 10 16 N/A
10:55 am 10:55 Sunny 64 17.5 44 6.8 50 50 N 10 17 29.89 1012 10 16 N/A
11:15 am 11:15 Sunny 65 18.1 43 6.3 46 46 NNE 13 20 29.89 1012 10 16 N/A
11:35 am 11:35 Sunny 66 18.8 44 6.4 45 45 NNE 15 24 29.89 1012 10 16 N/A
11:55 am 11:55 Sunny 67 19.5 43 6.1 42 42 NE 12 19 29.89 1012 10 16 N/A
12:15 pm 12:15 Sunny 68 19.9 43 6.2 41 41 NNE 10 17 29.88 1012 10 16 N/A
12:35 pm 12:35 Sunny 69 20.6 43 6 39 39 ENE 13 20 29.87 1012 10 16 N/A
12:55 pm 12:55 Sunny 69 20.6 42 5.4 37 37 NE 14 22 29.86 1011 10 16 N/A
1:15 pm 13:15 Sunny 69 20.8 42 5.7 37 37 NE 12 19 29.86 1011 10 16 N/A
1:35 pm 13:35 Sunny 71 21.4 41 5.1 35 35 NNE 8 13 29.86 1011 10 16 N/A
1:55 pm 13:55 Sunny 71 21.9 44 6.5 37 37 NE 7 11 29.85 1011 10 16 N/A
2:15 pm 14:15 Sunny 71 21.6 42 5.4 35 35 NE 7 11 29.84 1011 10 16 N/A
2:35 pm 14:35 Sunny 72 22.3 42 5.7 34 34 ENE 8 13 29.85 1011 10 16 N/A
2:55 pm 14:55 Sunny 72 22.3 42 5.5 34 34 ENE 9 15 29.83 1010 10 16 N/A
3:15 pm 15:15 Sunny 73 22.8 43 6.1 34 34 NE 9 15 29.82 1010 10 16 N/A
3:35 pm 15:35 Sunny 72 22.4 41 5.1 33 33 E 8 13 29.81 1009 10 16 N/A
3:55 pm 15:55 Sunny 73 23 42 5.8 33 33 E 9 15 29.81 1010 10 16 N/A
4:15 pm 16:15 Sunny 73 23 42 5.4 32 32 E 13 20 29.79 1009 10 16 N/A
4:35 pm 16:35 Sunny 74 23.3 42 5.7 32 32 E 12 19 29.79 1009 10 16 N/A
4:55 pm 16:55 Sunny 74 23.4 42 5.7 32 32 E 13 20 29.78 1008 10 16 N/A
5:15 pm 17:15 Sunny 74 23.3 42 5.3 31 31 E 14 22 29.77 1008 10 16 N/A
5:35 pm 17:35 Sunny 73 22.7 42 5.6 33 33 E 12 19 29.78 1008 10 16 N/A
5:55 pm 17:55 Sunny 73 22.6 42 5.3 33 33 E 14 22 29.78 1008 7 11 N/A
6:15 pm 18:15 Sunny 72 22.3 44 6.4 36 36 E 12 19 29.78 1008 10 16 N/A
6:35 pm 18:35 Sunny 72 22 44 6.5 37 37 E 13 20 29.77 1008 10 16 N/A
6:55 pm 18:55 Sunny 71 21.4 46 7.7 41 41 E 12 19 29.78 1008 10 16 N/A
7:15 pm 19:15 Sunny 69 20.6 46 7.7 44 44 E 8 13 29.77 1008 10 16 N/A
7:35 pm 19:35 Sunny 68 19.8 47 8.4 48 48 E 5 7 29.79 1009 10 16 N/A
7:55 pm 19:55 Sunny 65 18.1 49 9.5 57 57 E 5 7 29.80 1009 10 16 N/A
8:15 pm 20:15 Clear 61 16.3 51 10.5 69 69 ENE 6 9 29.83 1010 10 16 N/A
8:35 pm 20:35 Clear 60 15.4 51 10.5 73 73 ENE 7 11 29.83 1010 10 16 N/A
8:55 pm 20:55 Clear 59 14.9 51 10.5 75 75 NE 6 9 29.85 1011 10 16 N/A
9:15 pm 21:15 Clear 58 14.2 52 11 81 81 NNE 5 7 29.88 1012 10 16 N/A
9:35 pm 21:35 Hazy 59 14.8 51 10.3 75 75 N 7 11 29.88 1012 5 8 N/A
9:55 pm 21:55 Clear 56 13.5 51 10.4 82 82 NNE 5 7 29.90 1013 10 16 N/A
10:15 pm 22:15 Clear 55 13 51 10.5 85 85 NE 6 9 29.92 1013 10 16 N/A
10:35 pm 22:35 Clear 60 15.5 49 9.4 67 67 E 5 7 29.93 1013 10 16 N/A
10:55 pm 22:55 Clear 59 15.1 49 9.3 69 69 E 8 13 29.92 1013 10 16 N/A
11:15 pm 23:15 Clear 57 13.8 49 9.6 76 76 E 6 9 29.92 1013 10 16 N/A
11:35 pm 23:35 Clear 58 14.4 49 9.2 71 71 E 7 11 29.92 1013 10 16 N/A
11:55 pm 23:55 Clear 59 14.8 48 9.1 69 69 E 9 15 29.91 1013 10 16 N/A

Powered by AerisWeather